[[{"header":{"parameterUnit":"m.s-1","parameterCategory":1,"la1":30.2991,"la2":30.254,"lo1":-89.0895,"lo2":-89.0444,"dy":0.0017,"dx":0.0017,"nx":28,"ny":28,"refTime":"2024-04-24T03:00:00:Z","depth":0,"parameterNumber":2,"parameterNumberName":"U-component_of_WINDS"},"data":[0,0,0,0,0,0,0,0,0,0,0,0,0,0,0,0,0,0,0,0,0,0,0,0,0,0,0,0,0,0,0,0,0,0,0,0,0,0,0,0,0,0,0,0,0,0,0,0,0,0,0,0,0,0,0,0,0,0,-0.596,-0.596,0,-0.6009,-0.6009,-0.601,-0.602,-0.6019,-0.6019,-0.6018,-0.6072,-0.6073,-0.6075,0,0,0,0,0,0,0,0,0,0,0,0,0,-0.5877,-0.5879,-0.596,-0.596,-0.5961,-0.6009,-0.6009,-0.601,-0.602,-0.6019,-0.6019,-0.6018,-0.6071,-0.6073,-0.6075,0,0,0,0,0,0,0,0,0,0,0,0,0,-0.5918,-0.5879,-0.5959,-0.5971,-0.5973,-0.6009,-0.6009,-0.601,-0.602,-0.6019,-0.6019,-0.6018,-0.607,-0.6073,-0.6076,-0.6104,0,0,-0.6084,-0.6085,0,0,0,0,0,0,0,0,-0.5916,-0.5921,-0.5969,-0.5971,-0.5972,-0.6007,-0.6,-0.6042,-0.602,-0.6002,-0.6018,-0.6018,-0.6051,-0.6055,-0.6066,-0.6107,-0.6109,-0.6084,-0.6086,-0.6087,-0.6088,0,0,0,0,0,0,0,-0.5913,-0.5919,-0.5979,-0.597,-0.5972,-0.5975,-0.598,-0.6008,-0.6029,-0.6004,-0.6004,-0.601,-0.6052,-0.6063,-0.6067,-0.611,-0.6084,-0.6086,-0.6088,-0.6089,-0.6178,-0.6178,0,0,0,0,0,0,-0.5908,-0.5917,-0.5978,-0.5981,-0.5942,-0.5977,-0.5983,-0.5997,-0.6029,-0.6033,-0.601,-0.601,-0.6059,-0.6064,-0.6069,-0.6105,-0.6087,-0.6089,-0.6091,-0.6177,-0.6178,-0.6179,0,0,0,0,0,0,-0.5906,-0.5913,-0.5976,-0.5949,-0.5957,-0.5979,-0.5995,-0.5998,-0.6009,-0.6034,-0.6038,-0.6018,-0.6059,-0.6065,-0.6095,-0.6107,-0.6091,-0.6093,-0.6176,-0.6177,-0.6178,-0.6177,0,0,0,0,0,0,-0.5903,-0.5912,-0.5922,-0.5949,-0.5959,-0.6,-0.5995,-0.5999,-0.6014,-0.6014,-0.6042,-0.6046,-0.6059,-0.6091,-0.6098,-0.6111,-0.6095,-0.6175,-0.6177,-0.6178,-0.6177,-0.6178,-0.618,0,0,0,0,0,-0.5901,-0.5921,-0.5923,-0.593,-0.5972,-0.6001,-0.6006,-0.6019,-0.6015,-0.6026,-0.6042,-0.6046,-0.6105,-0.6094,-0.6102,-0.6116,-0.6174,-0.6176,-0.6178,-0.6176,-0.6178,-0.618,0,0,0,0,0,0,-0.5896,-0.5924,-0.5927,-0.5956,-0.5976,-0.6002,-0.6016,-0.6021,-0.6043,-0.6042,-0.6058,-0.6065,-0.6094,-0.6108,-0.6096,-0.6146,-0.614,-0.6143,-0.6135,-0.6138,-0.6139,-0.6136,-0.6097,0,0,0,0,0,-0.5898,-0.5918,-0.5942,-0.5966,-0.5976,-0.5994,-0.6007,-0.6016,-0.6037,-0.6046,-0.6064,-0.6085,-0.6109,-0.6124,-0.6147,-0.6179,-0.6186,-0.6192,-0.6194,-0.6195,-0.6198,-0.6217,-0.622,-0.6184,-0.6184,-0.6184,0,0,-0.5903,-0.5921,-0.5933,-0.5965,-0.5982,-0.6003,-0.6001,-0.6024,-0.6041,-0.6049,-0.6079,-0.6093,-0.6118,-0.6149,-0.6164,-0.6162,-0.6209,-0.6197,-0.6198,-0.62,-0.6219,-0.6222,-0.6225,-0.6185,-0.6185,-0.6185,0,0,-0.5923,-0.5939,-0.596,-0.5976,-0.6001,-0.6013,-0.6018,-0.6044,-0.6054,-0.6083,-0.609,-0.6111,-0.6151,-0.6169,-0.6183,-0.6211,-0.6216,-0.6218,-0.6227,-0.6246,-0.6249,-0.6251,-0.6262,-0.6266,-0.6221,-0.6221,-0.6221,0,-0.5927,-0.5959,-0.5971,-0.5994,-0.6008,-0.6016,-0.6039,-0.6055,-0.6086,-0.6096,-0.6093,-0.6144,-0.6161,-0.6197,-0.6204,-0.6215,-0.6222,-0.6215,-0.6247,-0.625,-0.6252,-0.6263,-0.6267,-0.6221,-0.6221,-0.6221,-0.6221,0,-0.5963,-0.5985,-0.5999,-0.6028,-0.6045,-0.6067,-0.6084,-0.6099,-0.6106,-0.6119,-0.615,-0.6171,-0.6199,-0.6208,-0.6216,-0.6246,-0.6244,-0.6243,-0.6238,-0.6256,-0.6266,-0.627,-0.6221,-0.6221,-0.6221,-0.6221,0,0,-0.5981,-0.6017,-0.6022,-0.6036,-0.6063,-0.6081,-0.6105,-0.6131,-0.6144,-0.6166,-0.6187,-0.6221,-0.6221,-0.6237,-0.6246,-0.6262,-0.6284,-0.626,-0.6261,-0.6265,-0.632,-0.6321,-0.6325,-0.6287,-0.6288,-0.6289,-0.6318,0,-0.6006,-0.6047,-0.6059,-0.6094,-0.6116,-0.6124,-0.6145,-0.6164,-0.6177,-0.6198,-0.6213,-0.6237,-0.6235,-0.6245,-0.6261,-0.6278,-0.6296,-0.6276,-0.6308,-0.6309,-0.6302,-0.633,-0.6331,-0.6357,-0.6322,-0.6323,-0.6323,0,-0.604,-0.6061,-0.6098,-0.6123,-0.6133,-0.6151,-0.6177,-0.6196,-0.6219,-0.6228,-0.6246,-0.6254,-0.6281,-0.6273,-0.631,-0.6297,-0.6311,-0.6321,-0.6323,-0.6327,-0.6318,-0.6336,-0.6366,-0.637,-0.633,-0.6329,-0.6329,0,-0.6051,-0.6089,-0.6116,-0.6127,-0.6157,-0.617,-0.6184,-0.6206,-0.6221,-0.6244,-0.6255,-0.628,-0.6295,-0.6315,-0.6331,-0.6324,-0.6367,-0.636,-0.6376,-0.6375,-0.6385,-0.6384,-0.6419,-0.6393,-0.6393,-0.6393,-0.6393,0,-0.6077,-0.61,-0.6121,-0.6138,-0.6164,-0.6178,-0.6204,-0.6218,-0.6238,-0.6259,-0.6268,-0.6287,-0.6306,-0.6328,-0.6341,-0.637,-0.6377,-0.6385,-0.6388,-0.6385,-0.6384,-0.6395,-0.6394,-0.6394,-0.6393,-0.6393,-0.6393,0,-0.6095,-0.611,-0.614,-0.6166,-0.6173,-0.6191,-0.6214,-0.6232,-0.6245,-0.6271,-0.6278,-0.6299,-0.6326,-0.6343,-0.6378,-0.6386,-0.6419,-0.6421,-0.6411,-0.6412,-0.6427,-0.6426,-0.647,-0.6477,-0.6446,-0.6446,-0.6446,0,-0.6111,-0.6128,-0.6156,-0.617,-0.6183,-0.6206,-0.6221,-0.6236,-0.6252,-0.628,-0.6295,-0.6322,-0.6344,-0.6387,-0.6407,-0.6433,-0.6437,-0.645,-0.6441,-0.6437,-0.6438,-0.6437,-0.6439,-0.6452,-0.6452,-0.6453,-0.6453,0,-0.6139,-0.6145,-0.6167,-0.6191,-0.6209,-0.6229,-0.625,-0.6261,-0.628,-0.6297,-0.6324,-0.6342,-0.6377,-0.6404,-0.6433,-0.6448,-0.6454,-0.6456,-0.6461,-0.6458,-0.6451,-0.6456,-0.6416,-0.6455,-0.6454,-0.6454,-0.6454,-0.6454,-0.6157,-0.6173,-0.6195,-0.6219,-0.6235,-0.6254,-0.6272,-0.6287,-0.631,-0.6339,-0.6346,-0.6375,-0.6399,-0.6437,-0.6453,-0.6476,-0.6475,-0.6482,-0.6484,-0.6486,-0.6486,-0.6447,-0.6482,-0.6482,-0.6482,-0.6482,-0.6482,0,-0.6186,-0.62,-0.6222,-0.625,-0.6269,-0.6272,-0.6294,-0.6311,-0.6335,-0.6356,-0.6378,-0.641,-0.6436,-0.6458,-0.6486,-0.65,-0.6504,-0.6507,-0.6507,-0.651,-0.6486,-0.6479,-0.6504,-0.6504,-0.6504,-0.6504,-0.6504,-0.6504,-0.6203,-0.6231,-0.624,-0.6277,-0.6292,-0.6319,-0.6332,-0.6349,-0.6366,-0.6401,-0.6423,-0.6436,-0.6458,-0.6487,-0.6512,-0.6518,-0.6528,-0.6531,-0.6538,-0.6514,-0.6512,-0.651,-0.6503,-0.6533,-0.6533,-0.656,-0.6561,-0.6561]},{"header":{"parameterUnit":"m.s-1","parameterCategory":1,"la1":30.2991,"la2":30.254,"lo1":-89.0895,"lo2":-89.0444,"dy":0.0017,"dx":0.0017,"nx":28,"ny":28,"refTime":"2024-04-24T03:00:00:Z","depth":0,"parameterNumber":3,"parameterNumberName":"V-component_of_WINDS"},"data":[0,0,0,0,0,0,0,0,0,0,0,0,0,0,0,0,0,0,0,0,0,0,0,0,0,0,0,0,0,0,0,0,0,0,0,0,0,0,0,0,0,0,0,0,0,0,0,0,0,0,0,0,0,0,0,0,0,0,4.0274,4.0275,0,4.0281,4.0281,4.0281,4.0228,4.0227,4.0225,4.0224,4.0229,4.0231,4.0232,0,0,0,0,0,0,0,0,0,0,0,0,0,4.0213,4.0214,4.0274,4.0275,4.0275,4.0281,4.0281,4.0281,4.0229,4.0227,4.0225,4.0223,4.0229,4.0231,4.0232,0,0,0,0,0,0,0,0,0,0,0,0,0,4.0231,4.0215,4.0274,4.0249,4.0247,4.0281,4.0281,4.0281,4.0229,4.0227,4.0224,4.0222,4.0228,4.023,4.0233,4.0291,0,0,4.024,4.0241,0,0,0,0,0,0,0,0,4.023,4.0234,4.0253,4.0251,4.0248,4.0252,4.0261,4.0284,4.0229,4.0236,4.0224,4.0221,4.0238,4.024,4.0246,4.0291,4.0291,4.024,4.0241,4.0242,4.0243,0,0,0,0,0,0,0,4.0229,4.0233,4.0277,4.0253,4.025,4.0236,4.0237,4.0265,4.0249,4.0235,4.0231,4.0233,4.0237,4.0244,4.0245,4.0292,4.024,4.0242,4.0243,4.0244,4.0381,4.0383,0,0,0,0,0,0,4.0232,4.0232,4.0277,4.0277,4.0234,4.0239,4.0239,4.0253,4.0249,4.0246,4.0235,4.023,4.0241,4.0243,4.0245,4.031,4.0242,4.0244,4.0246,4.0379,4.0381,4.0384,0,0,0,0,0,0,4.0231,4.0236,4.0276,4.0254,4.0258,4.0243,4.0258,4.0254,4.0261,4.0249,4.0245,4.0245,4.0239,4.0242,4.0279,4.031,4.0245,4.0247,4.0376,4.038,4.0383,4.0442,0,0,0,0,0,0,4.0229,4.0236,4.0259,4.0255,4.0259,4.0311,4.026,4.0256,4.0265,4.0259,4.0257,4.0255,4.0238,4.0276,4.0281,4.0312,4.0249,4.0373,4.0378,4.0382,4.0437,4.0447,4.0456,0,0,0,0,0,4.0227,4.0276,4.026,4.0266,4.0288,4.0313,4.0316,4.0296,4.0268,4.029,4.0281,4.0255,4.0306,4.028,4.0286,4.0317,4.0371,4.0376,4.0381,4.0433,4.0445,4.0456,0,0,0,0,0,0,4.0285,4.0275,4.0258,4.0307,4.0311,4.0304,4.0331,4.031,4.0321,4.0316,4.029,4.0289,4.033,4.0328,4.0299,4.0372,4.0334,4.034,4.0371,4.0383,4.0392,4.039,4.0251,0,0,0,0,0,4.0303,4.0325,4.0316,4.036,4.0363,4.0347,4.0358,4.0342,4.0345,4.0346,4.0341,4.0344,4.036,4.0372,4.0387,4.0438,4.0434,4.0462,4.0471,4.0479,4.0484,4.0507,4.0518,4.0401,4.0401,4.0401,0,0,4.0342,4.0339,4.0355,4.0372,4.0373,4.0395,4.0349,4.0375,4.039,4.035,4.0383,4.038,4.0382,4.0425,4.0444,4.0424,4.0515,4.0485,4.0491,4.0492,4.0513,4.0524,4.0534,4.0404,4.0404,4.0403,0,0,4.0422,4.0424,4.0459,4.0461,4.0463,4.0452,4.046,4.0456,4.0452,4.0485,4.0454,4.0472,4.0502,4.0504,4.0508,4.0587,4.0561,4.0593,4.0639,4.0662,4.0671,4.0679,4.0704,4.0714,4.0598,4.0599,4.0599,0,4.0469,4.0501,4.048,4.0507,4.0514,4.0478,4.0512,4.0515,4.0522,4.0527,4.0506,4.054,4.054,4.0581,4.06,4.0606,4.0613,4.0592,4.0672,4.068,4.0687,4.071,4.072,4.0602,4.0602,4.0601,4.0601,0,4.0557,4.058,4.0608,4.0615,4.0625,4.0656,4.0637,4.0651,4.0633,4.0624,4.0657,4.0654,4.0666,4.0676,4.066,4.0714,4.0701,4.0677,4.0637,4.0702,4.0723,4.0732,4.0607,4.0606,4.0605,4.0604,0,0,4.0673,4.0666,4.0677,4.0678,4.0677,4.0694,4.0722,4.0733,4.0743,4.075,4.077,4.0796,4.0772,4.0777,4.0761,4.0782,4.084,4.0754,4.0753,4.0767,4.0895,4.0911,4.0922,4.0824,4.0826,4.0827,4.0894,0,4.0749,4.0796,4.0776,4.0825,4.0844,4.0809,4.0833,4.0835,4.0826,4.084,4.0831,4.0848,4.0817,4.0819,4.0838,4.0829,4.0864,4.0824,4.0841,4.0841,4.0838,4.0934,4.0952,4.1015,4.0902,4.0904,4.0905,0,4.0843,4.0851,4.0901,4.0894,4.0901,4.0923,4.093,4.0945,4.0945,4.0937,4.0942,4.0921,4.0946,4.0909,4.0942,4.0914,4.092,4.0916,4.0918,4.0917,4.0875,4.0931,4.1035,4.1043,4.0918,4.0917,4.0916,0,4.0918,4.0942,4.0974,4.0977,4.097,4.0986,4.0983,4.0981,4.0988,4.0995,4.0999,4.1009,4.1013,4.1021,4.1002,4.0977,4.1036,4.0998,4.1028,4.1028,4.104,4.1039,4.1142,4.1049,4.1049,4.1049,4.1049,0,4.1002,4.1033,4.1007,4.1027,4.106,4.1037,4.107,4.1064,4.1062,4.1078,4.105,4.1066,4.1041,4.1054,4.104,4.1067,4.1071,4.1063,4.1058,4.1064,4.1064,4.1065,4.1059,4.1051,4.1051,4.105,4.105,0,4.1091,4.1075,4.1107,4.1098,4.1096,4.112,4.1111,4.1128,4.1117,4.1138,4.1142,4.1125,4.1139,4.1121,4.1134,4.1124,4.116,4.115,4.116,4.1156,4.1185,4.1181,4.129,4.1302,4.1205,4.1206,4.1206,0,4.1144,4.1167,4.1159,4.1168,4.1167,4.1182,4.1189,4.1167,4.1175,4.1175,4.1191,4.1202,4.1209,4.1233,4.1221,4.123,4.1218,4.1255,4.1219,4.1222,4.1214,4.1212,4.1212,4.1262,4.1263,4.1264,4.1265,0,4.1239,4.1229,4.124,4.1248,4.1256,4.1261,4.1264,4.1273,4.1249,4.1259,4.1272,4.1278,4.129,4.13,4.1305,4.1302,4.1279,4.1277,4.1283,4.1288,4.1291,4.1286,4.1176,4.1274,4.1273,4.1272,4.1272,4.1271,4.1309,4.1326,4.1323,4.1335,4.1334,4.1337,4.1351,4.1341,4.1352,4.1359,4.1346,4.1362,4.1359,4.1363,4.1362,4.1373,4.1357,4.1368,4.137,4.1372,4.1375,4.1292,4.1375,4.1374,4.1374,4.1374,4.1374,0,4.14,4.1395,4.1406,4.141,4.1419,4.1397,4.1398,4.1407,4.1421,4.142,4.1428,4.1441,4.1451,4.144,4.1447,4.1458,4.1447,4.146,4.1457,4.1456,4.1391,4.1383,4.1468,4.1468,4.1468,4.1468,4.1468,4.1468,4.1447,4.1474,4.1464,4.1489,4.1484,4.1499,4.1501,4.1503,4.1501,4.1518,4.1525,4.1518,4.1512,4.1518,4.1525,4.1521,4.1524,4.154,4.1532,4.1471,4.1461,4.1452,4.1444,4.1542,4.1542,4.1596,4.1597,4.1597]}]]